Location: Haliburton Scout Reserve
(45.0900°N, 78.3200°W)
Time: 17:40:04
(UTC-04:00)

JY1SAT - Pass Details

Date: 24 June 2024
Orbit: 536 x 549 km, 97.5° (Epoch: 11 July)

Event Time Altitude Azimuth Distance (km) Brightness Sun altitude
Exits shadow 21:42:35 - 149° (SSE) 2,095 ? -6.1°
Reaches altitude 10° 21:43:16 10° 147° (SSE) 1,816 ? -6.2°
Maximum altitude 21:47:03 48° 73° (ENE) 728 ? -6.7°
Drops below altitude 10° 21:50:53 10° 359° (N) 1,836 ? -7.1°
Sets 21:53:04 0° 353° (N) 2,736 ? -7.4°
